Home   Weather   Tirana   Past weeks

Flag for Albania Past Weather in Tirana, Albania — Yesterday and Last 2 Weeks

Now
50 °F

Clear.


Feels Like: 48 °F
Forecast: 43 / 70 °F
Wind: 5 mph from South

Location: Tirana Airport

Current Time: Apr 25, 2017 at 1:13:45 am

Latest Report: Apr 25, 2017 at 12:20 am


Visibility: 10 mi

Pressure: 30.15 "Hg

Humidity: 82%

Dew Point: 45 °F

Location of TiranaLocation

Past Weather in Tirana — Graph

°F

Tirana Temperature Yesterday

Maximum temperature yesterday: 70 °F (at 2:50 pm)
Minimum temperature yesterday: 48 °F (at 2:50 am)
Average temperature yesterday: 58 °F

High & Low Weather Summary for the Past Weeks

 TemperatureHumidityPressure
High70 °F (Apr 24, 2:50 pm)94% (Apr 19, 11:50 pm)30.21 "Hg (Apr 19, 11:50 pm)
Low34 °F (Apr 21, 6:20 am)23% (Apr 21, 12:20 pm)29.80 "Hg (Apr 19, 9:20 am)
Average51 °F63%30.09 "Hg
* Reported Apr 19 9:20 am — Apr 24 11:50 pm, Tirana, Weather by CustomWeather, © 2017

Note: Actual official high and low records may vary slightly from our data, if they occured in-between our weather recording intervals... More about our weather records

Advertising

Tirana Weather History for the Previous 24 Hours

Scroll right to see more
 ConditionsComfort  
Time TempWeatherWind HumidityBarometerVisibility
11:50 pm
Mon, Apr 24
50 °FClear.3 mph82%30.15 "Hg10 mi
11:20 pm50 °FClear.5 mph82%30.15 "Hg10 mi
10:50 pm52 °FClear.2 mph77%30.15 "Hg10 mi
10:20 pm52 °FClear.2 mph82%30.15 "Hg10 mi
9:50 pm54 °FClear.No wind88%30.15 "Hg5 mi
9:20 pm55 °FClear.2 mph82%30.15 "Hg10 mi
8:50 pm57 °FClear.No wind77%30.15 "Hg10 mi
8:20 pm57 °FClear.5 mph77%30.15 "Hg10 mi
7:50 pm59 °FClear.3 mph72%30.15 "Hg10 mi
7:20 pm61 °FSunny.5 mph68%30.15 "Hg10 mi
6:50 pm64 °FPassing clouds.2 mph60%30.15 "HgN/A
6:20 pm64 °FPassing clouds.6 mph52%30.15 "HgN/A
5:50 pm66 °FPassing clouds.2 mph52%30.15 "HgN/A
5:20 pm68 °FPassing clouds.3 mph49%30.15 "HgN/A
4:50 pm66 °FPassing clouds.6 mph49%30.15 "HgN/A
4:20 pm68 °FPassing clouds.6 mph49%30.15 "HgN/A
3:50 pm68 °FScattered clouds.7 mph49%30.15 "HgN/A
3:20 pm70 °FScattered clouds.8 mph46%30.15 "HgN/A
2:50 pm70 °FScattered clouds.6 mph43%30.15 "HgN/A
2:20 pm68 °FScattered clouds.8 mph49%30.18 "HgN/A
1:50 pm66 °FScattered clouds.6 mph52%30.18 "HgN/A
1:20 pm64 °FScattered clouds.8 mph56%30.18 "HgN/A
12:50 pm64 °FScattered clouds.6 mph52%30.18 "HgN/A
12:20 pm66 °FScattered clouds.6 mph46%30.18 "HgN/A
11:50 am66 °FScattered clouds.3 mph46%30.18 "HgN/A
11:20 am64 °FScattered clouds.5 mph52%30.18 "HgN/A
10:50 am63 °FScattered clouds.1 mph52%30.18 "HgN/A
10:20 am64 °FScattered clouds.3 mph52%30.18 "HgN/A
9:20 am61 °FSunny.2 mph63%30.18 "Hg10 mi
8:50 am59 °FSunny.No wind63%30.18 "Hg10 mi
8:20 am57 °FScattered clouds.No wind67%30.18 "HgN/A
7:50 am54 °FScattered clouds.2 mph77%30.18 "HgN/A
7:20 am52 °FScattered clouds.No wind88%30.15 "HgN/A
6:50 am48 °FBroken clouds.3 mph94%30.15 "Hg4 mi
6:20 am48 °FBroken clouds.2 mph87%30.15 "Hg4 mi
5:50 am48 °FBroken clouds.No wind87%30.15 "Hg5 mi
5:20 am48 °FPartly cloudy.No wind87%30.15 "Hg5 mi
4:50 am48 °FPassing clouds.No wind87%30.15 "Hg5 mi
4:20 am48 °FPartly cloudy.No wind87%30.15 "Hg5 mi
3:50 am48 °FPartly cloudy.No wind87%30.15 "HgN/A
2:50 am48 °FPartly cloudy.2 mph87%30.15 "HgN/A
2:20 am50 °FPartly cloudy.2 mph82%30.15 "HgN/A
1:50 am50 °FPassing clouds.No wind82%30.15 "HgN/A
1:20 am52 °FPassing clouds.2 mph82%30.15 "HgN/A
Weather by CustomWeather, © 2017

See weather overviewHow to use our weather pages